User: anonymous   Login
Location: Chacón
(10.5789°N, 66.9317°W)
Time: 17:07:21
(UTC+00:00)
Language:

Cosmos 1727 Rocket - Orbit

View from above orbital plane
View from above orbital plane
View from above satellite
View from above satellite

Ground track
Ground track

The orbit data is extracted from the following two-line orbital elements,

1 16511U 86008B   24204.66046932  .00000159  00000-0  14804-3 0  9999
2 16511  82.9433  97.2441 0022879 239.0569 139.1479 13.75895112932497
Epoch (UTC): 22 July 2024 15:51:04
Eccentricity: 0.0022879
inclination: 82.9433°
perigee height: 961 km
apogee height: 995 km
right ascension of ascending node: 97.2441°
argument of perigee: 239.0569°
revolutions per day: 13.75895112
mean anomaly at epoch: 139.1479°
orbit number at epoch: 93249

The dashed part of the orbit path shows where the satellite is in the earth's shadow,  

DLR